Year,Month,Day,Hour,Minute,Value (Times are PST for barometer in hPa)
2022,07,26,00,00,1058.59
2022,07,26,00,01,1058.59
2022,07,26,00,02,1058.59
2022,07,26,00,03,1058.59
2022,07,26,00,04,1058.59
2022,07,26,00,05,1058.59
2022,07,26,00,06,1058.59
2022,07,26,00,07,1058.59
2022,07,26,00,08,1058.59
2022,07,26,00,09,1058.59
2022,07,26,00,10,1058.59
2022,07,26,00,11,1058.59
2022,07,26,00,12,1058.59
2022,07,26,00,13,1058.59
2022,07,26,00,14,1058.59
2022,07,26,00,15,1058.59
2022,07,26,00,16,1058.59
2022,07,26,00,17,1058.59
2022,07,26,00,18,1058.59
2022,07,26,00,19,1058.59
2022,07,26,00,20,1058.59
2022,07,26,00,21,1058.59
2022,07,26,00,22,1058.59
2022,07,26,00,23,1058.59
2022,07,26,00,24,1058.59
2022,07,26,00,25,1058.59
2022,07,26,00,26,1058.59
2022,07,26,00,27,1058.59
2022,07,26,00,28,1058.59
2022,07,26,00,29,1058.59
2022,07,26,00,30,1058.59
2022,07,26,00,31,1058.59
2022,07,26,00,32,1058.59
2022,07,26,00,33,1058.59
2022,07,26,00,34,1058.59
2022,07,26,00,35,1058.59
2022,07,26,00,36,1058.59
2022,07,26,00,37,1058.59
2022,07,26,00,38,1058.59
2022,07,26,00,39,1058.59
2022,07,26,00,40,1058.59
2022,07,26,00,41,1058.59
2022,07,26,00,42,1058.59
2022,07,26,00,43,1058.59
2022,07,26,00,44,1058.59
2022,07,26,00,45,1058.59
2022,07,26,00,46,1058.59
2022,07,26,00,47,1058.59
2022,07,26,00,48,1058.59
2022,07,26,00,49,1058.59
2022,07,26,00,50,1058.59
2022,07,26,00,51,1058.59
2022,07,26,00,52,1058.59
2022,07,26,00,53,1058.59
2022,07,26,00,54,1058.59
2022,07,26,00,55,1058.59
2022,07,26,00,56,1058.59
2022,07,26,00,57,1058.59
2022,07,26,00,58,1058.59
2022,07,26,00,59,1058.59
2022,07,26,01,00,1058.59
2022,07,26,01,01,1058.59
2022,07,26,01,02,1058.59
2022,07,26,01,03,1058.59
2022,07,26,01,04,1058.59
2022,07,26,01,05,1058.59
2022,07,26,01,06,1058.59
2022,07,26,01,07,1058.59
2022,07,26,01,08,1058.59
2022,07,26,01,09,1058.59
2022,07,26,01,10,1058.59
2022,07,26,01,11,1058.59
2022,07,26,01,12,1058.59
2022,07,26,01,13,1058.59
2022,07,26,01,14,1058.59
2022,07,26,01,15,1058.59
2022,07,26,01,16,1058.59
2022,07,26,01,17,1058.59
2022,07,26,01,18,1058.59
2022,07,26,01,19,1058.59
2022,07,26,01,20,1058.59
2022,07,26,01,21,1058.59
2022,07,26,01,22,1058.59
2022,07,26,01,23,1058.59
2022,07,26,01,24,1058.59
2022,07,26,01,25,1058.59
2022,07,26,01,26,1058.59
2022,07,26,01,27,1058.59
2022,07,26,01,28,1058.59
2022,07,26,01,29,1058.59
2022,07,26,01,30,1058.59
2022,07,26,01,31,1058.59
2022,07,26,01,32,1058.59
2022,07,26,01,33,1058.59
2022,07,26,01,34,1058.59
2022,07,26,01,35,1058.59
2022,07,26,01,36,1058.59
2022,07,26,01,37,1058.59
2022,07,26,01,38,1058.59
2022,07,26,01,39,1058.59
2022,07,26,01,40,1058.59
2022,07,26,01,41,1058.59
2022,07,26,01,42,1058.59
2022,07,26,01,43,1058.59
2022,07,26,01,44,1058.59
2022,07,26,01,45,1058.59
2022,07,26,01,46,1058.59
2022,07,26,01,47,1058.59
2022,07,26,01,48,1058.59
2022,07,26,01,49,1058.59
2022,07,26,01,50,1058.59
2022,07,26,01,51,1058.59
2022,07,26,01,52,1058.59
2022,07,26,01,53,1058.59
2022,07,26,01,54,1058.59
2022,07,26,01,55,1058.59
2022,07,26,01,56,1058.59
2022,07,26,01,57,1058.59
2022,07,26,01,58,1058.59
2022,07,26,01,59,1058.59
2022,07,26,02,00,1058.59
2022,07,26,02,01,1058.59
2022,07,26,02,02,1058.59
2022,07,26,02,03,1058.59
2022,07,26,02,04,1058.59
2022,07,26,02,05,1058.59
2022,07,26,02,06,1058.59
2022,07,26,02,07,1058.59
2022,07,26,02,08,1058.59
2022,07,26,02,09,1058.59
2022,07,26,02,10,1058.59
2022,07,26,02,11,1058.59
2022,07,26,02,12,1058.59
2022,07,26,02,13,1058.59
2022,07,26,02,14,1058.59
2022,07,26,02,15,1058.59
2022,07,26,02,16,1058.59
2022,07,26,02,17,1058.59
2022,07,26,02,18,1058.59
2022,07,26,02,19,1058.59
2022,07,26,02,20,1058.59
2022,07,26,02,21,1058.59
2022,07,26,02,22,1058.59
2022,07,26,02,23,1058.59
2022,07,26,02,24,1058.59
2022,07,26,02,25,1058.59
2022,07,26,02,26,1058.59
2022,07,26,02,27,1058.59
2022,07,26,02,28,1058.59
2022,07,26,02,29,1058.59
2022,07,26,02,30,1058.59
2022,07,26,02,31,1058.59
2022,07,26,02,32,1058.59
2022,07,26,02,33,1058.59
2022,07,26,02,34,1058.59
2022,07,26,02,35,1058.59
2022,07,26,02,36,1058.59
2022,07,26,02,37,1058.59
2022,07,26,02,38,1058.59
2022,07,26,02,39,1058.59
2022,07,26,02,40,1058.59
2022,07,26,02,41,1058.59
2022,07,26,02,42,1058.59
2022,07,26,02,43,1058.59
2022,07,26,02,44,1058.59
2022,07,26,02,45,1058.59
2022,07,26,02,46,1058.59
2022,07,26,02,47,1058.59
2022,07,26,02,48,1058.59
2022,07,26,02,49,1058.59
2022,07,26,02,50,1058.59
2022,07,26,02,51,1058.59
2022,07,26,02,52,1058.59
2022,07,26,02,53,1058.59
2022,07,26,02,54,1058.59
2022,07,26,02,55,1058.59
2022,07,26,02,56,1058.59
2022,07,26,02,57,1058.59
2022,07,26,02,58,1058.59
2022,07,26,02,59,1058.59
2022,07,26,03,00,1058.59
2022,07,26,03,01,1058.59
2022,07,26,03,02,1058.59
2022,07,26,03,06,1058.59
2022,07,26,03,07,1058.59
2022,07,26,03,08,1058.59
2022,07,26,03,09,1058.59
2022,07,26,03,10,1058.59
2022,07,26,03,11,1058.59
2022,07,26,03,12,1058.59
2022,07,26,03,13,1058.59
2022,07,26,03,14,1058.59
2022,07,26,03,15,1058.59
2022,07,26,03,16,1058.59
2022,07,26,03,17,1058.59
2022,07,26,03,18,1058.59
2022,07,26,03,19,1058.59
2022,07,26,03,20,1058.59
2022,07,26,03,21,1058.59
2022,07,26,03,22,1058.59
2022,07,26,03,23,1058.59
2022,07,26,03,24,1058.59
2022,07,26,03,25,1058.59
2022,07,26,03,26,1058.59
2022,07,26,03,27,1058.59
2022,07,26,03,28,1058.59
2022,07,26,03,29,1058.59
2022,07,26,03,30,1058.59
2022,07,26,03,31,1058.59
2022,07,26,03,32,1058.59
2022,07,26,03,33,1058.59
2022,07,26,03,34,1058.59
2022,07,26,03,35,1058.59
2022,07,26,03,36,1058.59
2022,07,26,03,37,1058.59
2022,07,26,03,38,1058.59
2022,07,26,03,39,1058.59
2022,07,26,03,40,1058.59
2022,07,26,03,41,1058.59
2022,07,26,03,42,1058.59
2022,07,26,03,43,1058.59
2022,07,26,03,44,1058.59
2022,07,26,03,45,1058.59
2022,07,26,03,46,1058.59
2022,07,26,03,47,1058.59
2022,07,26,03,48,1058.59
2022,07,26,03,49,1058.59
2022,07,26,03,50,1058.59
2022,07,26,03,51,1058.59
2022,07,26,03,52,1058.59
2022,07,26,03,53,1058.59
2022,07,26,03,54,1058.59
2022,07,26,03,55,1058.59
2022,07,26,03,56,1058.59
2022,07,26,03,57,1058.59
2022,07,26,03,58,1058.59
2022,07,26,03,59,1058.59
2022,07,26,04,00,1058.59
2022,07,26,11,49,1036.74
2022,07,26,11,50,1036.74
2022,07,26,11,51,1036.74
2022,07,26,11,52,1036.74
2022,07,26,11,53,1036.74
2022,07,26,11,54,1036.74
2022,07,26,11,55,1036.74
2022,07,26,11,56,1036.74
2022,07,26,11,57,1036.74
2022,07,26,11,58,1036.74
2022,07,26,11,59,1036.74
2022,07,26,12,00,1036.74
2022,07,26,12,01,1030.04
2022,07,26,12,02,969.71
2022,07,26,12,03,969.86
2022,07,26,12,04,969.82
2022,07,26,12,05,969.42
2022,07,26,12,06,969.16
2022,07,26,12,07,969.02
2022,07,26,12,08,969.02
2022,07,26,12,09,969.00
2022,07,26,12,10,968.92
2022,07,26,12,11,969.02
2022,07,26,12,12,969.02
2022,07,26,12,13,969.01
2022,07,26,12,14,968.93
2022,07,26,12,15,969.08
2022,07,26,12,16,969.10
2022,07,26,12,17,969.28
2022,07,26,12,18,969.19
2022,07,26,12,19,969.30
2022,07,26,12,20,969.22
2022,07,26,12,21,969.22
2022,07,26,12,22,969.22
2022,07,26,12,23,969.22
2022,07,26,12,24,969.22
2022,07,26,12,25,969.23
2022,07,26,12,26,969.32
2022,07,26,12,27,969.32
2022,07,26,12,28,969.26
2022,07,26,12,29,968.90
2022,07,26,12,30,968.72
2022,07,26,12,31,968.20
2022,07,26,12,32,968.20
2022,07,26,12,33,968.20
2022,07,26,12,34,968.28
2022,07,26,12,35,969.04
2022,07,26,12,36,968.98
2022,07,26,12,37,968.96
2022,07,26,12,38,969.06
2022,07,26,12,39,969.42
2022,07,26,12,40,969.41
2022,07,26,12,41,969.35
2022,07,26,12,42,969.32
2022,07,26,12,43,969.03
2022,07,26,12,44,968.88
2022,07,26,12,45,969.16
2022,07,26,12,46,969.21
2022,07,26,12,47,969.06
2022,07,26,12,48,968.46
2022,07,26,12,49,968.00
2022,07,26,12,50,968.22
2022,07,26,12,51,967.83
2022,07,26,12,52,967.77
2022,07,26,12,53,967.26
2022,07,26,12,54,967.64
2022,07,26,12,55,967.76
2022,07,26,12,56,967.76
2022,07,26,12,57,967.76
2022,07,26,12,58,967.75
2022,07,26,12,59,967.63
2022,07,26,13,00,967.63
2022,07,26,13,01,967.63
2022,07,26,13,02,967.40
2022,07,26,13,03,965.32
2022,07,26,13,04,965.55
2022,07,26,13,05,967.63
2022,07,26,13,06,967.63
2022,07,26,13,07,967.63
2022,07,26,13,08,967.63
2022,07,26,13,09,967.56
2022,07,26,13,10,966.91
2022,07,26,13,11,966.84
2022,07,26,13,12,967.09
2022,07,26,13,13,967.09
2022,07,26,13,14,967.09
2022,07,26,13,15,967.09
2022,07,26,13,16,967.09
2022,07,26,13,17,967.09
2022,07,26,13,18,967.09
2022,07,26,13,19,967.09
2022,07,26,13,20,967.09
2022,07,26,13,21,966.88
2022,07,26,13,22,964.99
2022,07,26,13,23,964.99
2022,07,26,13,24,964.99
2022,07,26,13,25,964.99
2022,07,26,13,26,964.99
2022,07,26,13,27,964.99
2022,07,26,13,28,964.99
2022,07,26,13,29,964.99
2022,07,26,13,30,964.99
2022,07,26,13,31,964.88
2022,07,26,13,32,963.87
2022,07,26,13,33,963.87
2022,07,26,13,34,963.87
2022,07,26,13,35,963.87
2022,07,26,13,36,963.87
2022,07,26,13,37,963.87
2022,07,26,13,38,963.87
2022,07,26,13,39,964.06
2022,07,26,13,40,965.76
2022,07,26,13,41,965.76
2022,07,26,13,42,965.76
2022,07,26,13,43,965.76
2022,07,26,13,44,965.76
2022,07,26,13,45,965.76
2022,07,26,13,46,966.08
2022,07,26,13,47,972.16
2022,07,26,13,48,972.16
2022,07,26,13,49,972.16
2022,07,26,13,50,972.16
2022,07,26,13,51,972.16
2022,07,26,13,52,972.16
2022,07,26,13,53,972.16
2022,07,26,13,54,971.27
2022,07,26,13,55,963.23
2022,07,26,13,56,962.65
2022,07,26,13,57,962.65
2022,07,26,13,58,962.65
2022,07,26,13,59,962.65
2022,07,26,14,00,962.75
2022,07,26,14,01,963.68
2022,07,26,14,02,963.80
2022,07,26,14,03,963.80
2022,07,26,14,04,963.80
2022,07,26,14,05,963.80
2022,07,26,14,06,963.80
2022,07,26,14,07,963.80
2022,07,26,14,08,963.80
2022,07,26,14,09,963.80
2022,07,26,14,10,963.80
2022,07,26,14,11,963.80
2022,07,26,14,12,963.80
2022,07,26,14,13,963.80
2022,07,26,14,14,963.80
2022,07,26,14,15,963.80
2022,07,26,14,16,963.80
2022,07,26,14,17,963.80
2022,07,26,14,18,963.72
2022,07,26,14,19,962.31
2022,07,26,14,20,962.31
2022,07,26,14,21,962.31
2022,07,26,14,22,962.31
2022,07,26,14,23,962.31
2022,07,26,14,24,962.31
2022,07,26,14,25,962.31
2022,07,26,14,26,962.31
2022,07,26,14,27,962.31
2022,07,26,14,28,962.31
2022,07,26,14,29,962.31
2022,07,26,14,30,962.31
2022,07,26,14,31,962.31
2022,07,26,14,32,962.31
2022,07,26,14,33,962.31
2022,07,26,14,34,962.31
2022,07,26,14,35,962.31
2022,07,26,14,36,962.31
2022,07,26,14,37,962.31
2022,07,26,14,38,962.31
2022,07,26,14,39,962.31
2022,07,26,14,40,962.31
2022,07,26,14,41,962.31
2022,07,26,14,42,962.31
2022,07,26,14,43,962.31
2022,07,26,14,44,962.31
2022,07,26,14,45,962.31
2022,07,26,14,46,962.31
2022,07,26,14,47,962.31
2022,07,26,14,48,962.88
2022,07,26,14,49,968.03
2022,07,26,14,50,968.03
2022,07,26,14,51,967.84
2022,07,26,14,52,966.20
2022,07,26,14,53,966.31
2022,07,26,14,54,968.43
2022,07,26,14,55,968.08
2022,07,26,14,56,968.20
2022,07,26,14,57,968.29
2022,07,26,14,58,968.73
2022,07,26,14,59,968.64
2022,07,26,15,00,968.54
2022,07,26,15,01,966.75
2022,07,26,15,02,966.80
2022,07,26,15,03,967.89
2022,07,26,15,04,968.20
2022,07,26,15,05,968.13
2022,07,26,15,06,966.88
2022,07,26,15,07,966.88
2022,07,26,15,08,966.82
2022,07,26,15,09,966.31
2022,07,26,15,10,966.37
2022,07,26,15,11,967.46
2022,07,26,15,12,967.46
2022,07,26,15,13,967.47
2022,07,26,15,14,967.55
2022,07,26,15,15,967.73
2022,07,26,15,16,967.76
2022,07,26,15,17,967.61
2022,07,26,15,18,966.27
2022,07,26,15,19,966.39
2022,07,26,15,20,967.46
2022,07,26,15,21,967.46
2022,07,26,15,22,967.47
2022,07,26,15,23,967.56
2022,07,26,15,24,967.56
2022,07,26,15,25,967.56
2022,07,26,15,26,967.56
2022,07,26,15,27,967.56
2022,07,26,15,28,967.72
2022,07,26,15,29,969.16
2022,07,26,15,30,968.84
2022,07,26,15,31,968.71
2022,07,26,15,32,968.71
2022,07,26,15,33,968.68
2022,07,26,15,34,968.39
2022,07,26,15,35,968.17
2022,07,26,15,36,968.17
2022,07,26,15,37,968.17
2022,07,26,15,38,967.97
2022,07,26,15,39,964.34
2022,07,26,15,40,964.34
2022,07,26,15,41,964.34
2022,07,26,15,42,964.80
2022,07,26,15,43,968.96
2022,07,26,15,44,968.81
2022,07,26,15,45,968.81
2022,07,26,15,46,968.81
2022,07,26,15,47,968.81
2022,07,26,15,48,968.81
2022,07,26,15,49,968.81
2022,07,26,15,50,968.81
2022,07,26,15,51,968.81
2022,07,26,15,52,968.81
2022,07,26,15,53,968.81
2022,07,26,15,54,968.87
2022,07,26,15,55,969.37
2022,07,26,15,56,968.90
2022,07,26,15,57,969.18
2022,07,26,15,58,969.18
2022,07,26,15,59,969.18
2022,07,26,16,00,969.18
2022,07,26,16,01,969.18
2022,07,26,16,02,969.18
2022,07,26,16,03,969.18
2022,07,26,16,04,969.18
2022,07,26,16,05,969.18
2022,07,26,16,06,969.18
2022,07,26,16,07,969.18
2022,07,26,16,08,969.12
2022,07,26,16,09,968.07
2022,07,26,16,10,968.07
2022,07,26,16,11,968.07
2022,07,26,16,12,968.07
2022,07,26,16,13,968.07
2022,07,26,16,14,968.07
2022,07,26,16,15,968.07
2022,07,26,16,16,968.07
2022,07,26,16,17,968.07
2022,07,26,16,18,968.07
2022,07,26,16,19,968.07
2022,07,26,16,20,968.07
2022,07,26,16,21,968.07
2022,07,26,16,22,968.07
2022,07,26,16,23,968.07
2022,07,26,16,24,968.07
2022,07,26,16,25,968.07
2022,07,26,16,26,968.07
2022,07,26,16,27,968.07
2022,07,26,16,28,968.07
2022,07,26,16,29,968.07
2022,07,26,16,30,968.07
2022,07,26,16,31,968.07
2022,07,26,16,32,968.07
2022,07,26,16,33,968.48
2022,07,26,16,34,976.23
2022,07,26,16,35,975.92
2022,07,26,16,36,973.15
2022,07,26,16,37,973.15
2022,07,26,16,38,973.15
2022,07,26,16,39,972.67
2022,07,26,16,40,963.50
2022,07,26,16,41,963.50
2022,07,26,16,42,963.50
2022,07,26,16,43,963.50
2022,07,26,16,44,963.37
2022,07,26,16,45,962.17
2022,07,26,16,46,962.17
2022,07,26,16,47,962.17
2022,07,26,16,48,962.17
2022,07,26,16,49,962.17
2022,07,26,16,50,962.17
2022,07,26,16,51,962.17
2022,07,26,16,52,962.17
2022,07,26,16,53,962.17
2022,07,26,16,54,962.17
2022,07,26,16,55,962.17
2022,07,26,16,56,962.17
2022,07,26,16,57,962.17
2022,07,26,16,58,962.17
2022,07,26,16,59,962.17
2022,07,26,17,00,962.17
2022,07,26,17,01,962.17
2022,07,26,17,02,962.17
2022,07,26,17,03,962.17
2022,07,26,17,04,962.17
2022,07,26,17,05,962.17
2022,07,26,17,06,962.17
2022,07,26,17,07,962.17
2022,07,26,17,08,962.17
2022,07,26,17,09,962.17
2022,07,26,17,10,962.17
2022,07,26,17,11,962.17
2022,07,26,17,12,962.17
2022,07,26,17,13,962.17
2022,07,26,17,14,962.78
2022,07,26,17,15,968.29
2022,07,26,17,16,968.14
2022,07,26,17,17,968.14
2022,07,26,17,18,969.53
2022,07,26,17,19,994.48
2022,07,26,17,20,994.48
2022,07,26,17,21,994.48
2022,07,26,17,22,994.48
2022,07,26,17,23,994.48
2022,07,26,17,24,994.48
2022,07,26,17,25,994.48
2022,07,26,17,26,994.48
2022,07,26,17,27,994.48
2022,07,26,17,28,994.48
2022,07,26,17,29,994.48
2022,07,26,17,30,994.48
2022,07,26,17,31,994.48
2022,07,26,17,32,994.48
2022,07,26,17,33,994.48
2022,07,26,17,34,994.48
2022,07,26,17,35,994.48
2022,07,26,17,36,994.48
2022,07,26,17,37,994.48
2022,07,26,17,38,994.48
2022,07,26,17,39,994.48
2022,07,26,17,40,994.48
2022,07,26,17,41,994.48
2022,07,26,17,42,994.48
2022,07,26,17,43,994.48
2022,07,26,17,44,994.48
2022,07,26,17,45,994.48
2022,07,26,17,46,994.48
2022,07,26,17,47,994.48
2022,07,26,17,48,994.48
2022,07,26,17,49,994.48
2022,07,26,17,50,994.48
2022,07,26,17,51,994.48
2022,07,26,17,52,994.48
2022,07,26,17,53,994.48
2022,07,26,17,54,994.48
2022,07,26,17,55,994.48
2022,07,26,17,56,994.48
2022,07,26,17,57,994.48
2022,07,26,17,58,994.48
2022,07,26,17,59,994.48
2022,07,26,18,00,994.48
2022,07,26,18,01,994.48
2022,07,26,18,02,994.48
2022,07,26,18,03,994.48
2022,07,26,18,04,994.48
2022,07,26,18,05,994.48
2022,07,26,18,06,994.48
2022,07,26,18,07,994.48
2022,07,26,18,08,994.48
2022,07,26,18,09,994.48
2022,07,26,18,10,994.48
2022,07,26,18,11,994.48
2022,07,26,18,12,994.48
2022,07,26,18,13,994.48
2022,07,26,18,14,994.48
2022,07,26,18,15,994.48
2022,07,26,18,16,994.48
2022,07,26,18,17,994.01
2022,07,26,18,18,985.13
2022,07,26,18,19,984.29
2022,07,26,18,20,969.22
2022,07,26,18,21,969.22
2022,07,26,18,22,969.22
2022,07,26,18,23,969.20
2022,07,26,18,24,968.81
2022,07,26,18,25,968.81
2022,07,26,18,26,968.81
2022,07,26,18,27,968.81
2022,07,26,18,28,968.81
2022,07,26,18,29,968.81
2022,07,26,18,30,968.95
2022,07,26,18,31,971.62
2022,07,26,18,32,971.62
2022,07,26,18,33,971.62
2022,07,26,18,34,971.50
2022,07,26,18,35,969.22
2022,07,26,18,36,969.22
2022,07,26,18,37,969.22
2022,07,26,18,38,969.22
2022,07,26,18,39,969.22
2022,07,26,18,40,969.22
2022,07,26,18,41,969.85
2022,07,26,18,42,981.78
2022,07,26,18,43,981.78
2022,07,26,18,44,981.78
2022,07,26,18,45,981.78
2022,07,26,18,46,981.78
2022,07,26,18,47,981.78
2022,07,26,18,48,981.78
2022,07,26,18,49,981.78
2022,07,26,18,50,981.78
2022,07,26,18,51,981.78
2022,07,26,18,52,981.78
2022,07,26,18,53,981.14
2022,07,26,18,54,968.98
2022,07,26,18,55,968.98
2022,07,26,18,56,968.98
2022,07,26,18,57,968.98
2022,07,26,18,58,968.98
2022,07,26,18,59,968.98
2022,07,26,19,00,968.98
2022,07,26,19,01,968.98
2022,07,26,19,02,968.98
2022,07,26,19,03,968.98
2022,07,26,19,04,968.98
2022,07,26,19,05,968.98
2022,07,26,19,06,968.98
2022,07,26,19,07,968.98
2022,07,26,19,08,968.98
2022,07,26,19,09,968.98
2022,07,26,19,10,968.98
2022,07,26,19,11,968.91
2022,07,26,19,12,968.91
2022,07,26,19,13,968.91
2022,07,26,19,14,968.91
2022,07,26,19,15,968.91
2022,07,26,19,16,968.91
2022,07,26,19,17,968.91
2022,07,26,19,18,968.91
2022,07,26,19,19,968.91
2022,07,26,19,20,968.91
2022,07,26,19,21,968.91
2022,07,26,19,22,968.91
2022,07,26,19,23,968.91
2022,07,26,19,24,968.91
2022,07,26,19,25,968.91
2022,07,26,19,26,968.91
2022,07,26,19,27,968.91
2022,07,26,19,28,968.91
2022,07,26,19,29,968.91
2022,07,26,19,30,968.91
2022,07,26,19,31,968.91
2022,07,26,19,32,968.91
2022,07,26,19,33,968.91
2022,07,26,19,34,968.91
2022,07,26,19,35,968.91
2022,07,26,19,36,968.91
2022,07,26,19,37,968.91
2022,07,26,19,38,968.91
2022,07,26,19,39,968.91
2022,07,26,19,40,968.91
2022,07,26,19,41,969.56
2022,07,26,19,42,981.99
2022,07,26,19,43,981.99
2022,07,26,19,44,981.99
2022,07,26,19,45,981.99
2022,07,26,19,46,981.99
2022,07,26,19,47,981.39
2022,07,26,19,48,970.02
2022,07,26,19,49,969.76
2022,07,26,19,50,970.17
2022,07,26,19,51,969.52
2022,07,26,19,52,969.52
2022,07,26,19,53,969.52
2022,07,26,19,54,969.52
2022,07,26,19,55,969.52
2022,07,26,19,56,969.52
2022,07,26,19,57,969.52
2022,07,26,19,58,969.52
2022,07,26,19,59,969.52
2022,07,26,20,00,969.52
2022,07,26,20,01,969.52
2022,07,26,20,02,969.52
2022,07,26,20,03,970.05
2022,07,26,20,04,980.12
2022,07,26,20,05,980.12
2022,07,26,20,06,980.12
2022,07,26,20,07,980.12
2022,07,26,20,08,980.12
2022,07,26,20,09,980.12
2022,07,26,20,10,980.12
2022,07,26,20,11,980.12
2022,07,26,20,12,980.12
2022,07,26,20,13,980.12
2022,07,26,20,14,980.12
2022,07,26,20,15,980.12
2022,07,26,20,16,980.12
2022,07,26,20,17,980.12
2022,07,26,20,18,980.12
2022,07,26,20,19,980.12
2022,07,26,20,20,980.12
2022,07,26,20,21,980.12
2022,07,26,20,22,980.12
2022,07,26,20,23,980.12
2022,07,26,20,24,980.12
2022,07,26,20,25,980.12
2022,07,26,20,26,980.12
2022,07,26,20,27,980.12
2022,07,26,20,28,980.12
2022,07,26,20,29,980.12
2022,07,26,20,30,980.12
2022,07,26,20,31,980.12
2022,07,26,20,32,980.12
2022,07,26,20,33,980.12
2022,07,26,20,34,980.12
2022,07,26,20,35,980.12
2022,07,26,20,36,980.12
2022,07,26,20,37,980.12
2022,07,26,20,38,980.12
2022,07,26,20,39,980.12
2022,07,26,20,40,980.12
2022,07,26,20,41,980.12
2022,07,26,20,42,980.12
2022,07,26,20,43,980.12
2022,07,26,20,44,980.12
2022,07,26,20,45,980.12
2022,07,26,20,46,980.12
2022,07,26,20,47,980.12
2022,07,26,20,48,980.12
2022,07,26,20,49,980.12
2022,07,26,20,50,980.12
2022,07,26,20,51,980.12
2022,07,26,20,52,980.12
2022,07,26,20,53,980.12
2022,07,26,20,54,980.12
2022,07,26,20,55,980.12
2022,07,26,20,56,980.12
2022,07,26,20,57,980.12
2022,07,26,20,58,980.12
2022,07,26,20,59,980.12
2022,07,26,21,00,980.12
2022,07,26,21,01,980.12
2022,07,26,21,02,980.12
2022,07,26,21,03,980.12
2022,07,26,21,04,980.12
2022,07,26,21,05,980.12
